LEMUR-2-JIN-LUEN (43182 NORAD) Tracking and Keplerian Element Data

This shows tracking and keplerian element data for the satellite.

Feedback or suggestion? Click here.




ElementValue
Catalog43182
NameLEMUR-2-JIN-LUEN
Epoch Orbit446
Epoch Day62.18448006
Epoch Year2018
RAAN331.9245
Inclination97.7267
Eccentricity0.0014465
Argument of Perigee142.8276
Mean Anonmoly217.3941
Mean Motion14.9571015
Decay Rate1.024E-05
L11 43182U 18014C 18062.18448006 .00001024 00000-0 96982-4 0 9995
L22 43182 97.7267 331.9245 0014465 142.8276 217.3941 14.95710150 4469

Live tracking and technical data element details for LEMUR-2-JIN-LUEN (NORAD 43182). LEMUR-2-JIN-LUEN can be tracked NOW for your location showing map with azimuth and elevation plus other details from your city location.

Track the satellite on the map from your city or location and see movement details for azimuth, elevation, latitude, longitude, range, height, and movement on the map or in text.







IsCatalogInMostPopularTable: catalog: 43182, numindb: 137
Update: records affected: 1



GetName: 43182 LEMUR-2-JIN-LUEN

Hit Count: updated at: Mon, 19 Nov 2018 11:53:35 GMT